User: anonymous   Login
Location: Sun City Center
(27.6996°N, 82.3528°W)
Time: 23:34:34
(UTC-04:00)
Language:

Cosmos 2084 Rocket - Orbit

View from above orbital plane
View from above orbital plane
View from above satellite
View from above satellite

Ground track
Ground track

The orbit data is extracted from the following two-line orbital elements,

1 20666U 90055D   16178.75267466  .00000050  00000-0  22291-4 0  9990
2 20666  62.7840 253.9162 0133672  74.2619 287.3171 14.91612256408152
Epoch (UTC): 26 June 2016 18:03:51
Eccentricity: 0.0133672
inclination: 62.7840°
perigee height: 500 km
apogee height: 686 km
right ascension of ascending node: 253.9162°
argument of perigee: 74.2619°
revolutions per day: 14.91612256
mean anomaly at epoch: 287.3171°
orbit number at epoch: 40815

The dashed part of the orbit path shows where the satellite is in the earth's shadow,  

DLR